Location: Bagnara
(41.0500°N, 14.7833°E)
Time: 22:58:22
(UTC+00:00)

SL-14 DEB - Visible Passes

Search period start: 10 August 2022 00:00
Search period end: 20 August 2022 00:00
Orbit: 817 x 964 km, 82.6° (Epoch: 09 August)

Date Brightness Start Highest point End Pass type
(mag) Time Alt. Az. Time Alt. Az. Time Alt. Az.
10 Aug ? 02:26:03 10° ENE 02:26:22 10° ENE 02:26:40 10° ENE visible
11 Aug ? 02:24:31 10° NE 02:26:33 12° ENE 02:28:32 10° E visible
12 Aug ? 02:23:54 10° NE 02:26:42 14° ENE 02:29:28 10° E visible
13 Aug ? 02:23:29 10° NNE 02:26:52 16° ENE 02:30:09 10° ESE visible
14 Aug ? 02:23:10 10° NNE 02:27:00 18° ENE 02:30:44 10° ESE visible
15 Aug ? 02:22:56 10° NNE 02:27:08 20° ENE 02:31:12 10° ESE visible
16 Aug ? 02:22:45 10° NNE 02:27:15 23° ENE 02:31:36 10° ESE visible
17 Aug ? 02:22:36 10° NNE 02:27:21 27° ENE 02:31:57 10° SE visible
18 Aug ? 02:22:28 10° NNE 02:27:26 30° ENE 02:32:15 10° SE visible
19 Aug ? 02:22:22 10° N 02:27:31 35° ENE 02:32:30 10° SE visible
